St Catherine Internationa, Egypt

5:35 AM EET on December 17, 2017 (GMT +0200)
St Catherine Internationa

Weather History for HESC - August, 2014

Change the Weather History Date:

Sunday, August 31, 2014

  Actual Average Record
Temperature  
Mean Temperature 82 °F -  
Max Temperature 95 °F - - ()
Min Temperature 69 °F - - ()
Cooling Degree Days 17    
Growing Degree Days 32 (Base 50)    
Moisture  
Dew Point 42 °F    
Average Humidity 31    
Maximum Humidity 53    
Minimum Humidity 9    
Precipitation  
Precipitation 0.00 in - - ()
Sea Level Pressure  
Sea Level Pressure 30.07 in    
Wind  
Wind Speed 6 mph ()    
Max Wind Speed 21 mph    
Max Gust Speed -    
T = Trace of Precipitation, MM = Missing Value Source: Averaged Metar Reports

Daily Weather History Graph

Daily Weather History Graph

Search for Another Location

Airport or City:

Trip Planner

Search our weather history database for the weather conditions in past years. The results will help you decide how hot, cold, wet, or windy it might be!

Date:

Astronomy

Aug. 31, 2014 Rise Set
Actual Time 6:21 AM EEST 7:06 PM EEST
Civil Twilight 5:57 AM EEST 7:30 PM EEST
Nautical Twilight 5:28 AM EEST 7:59 PM EEST
Astronomical Twilight 4:59 AM EEST 8:27 PM EEST
Moon 11:19 AM EEST (8/31) 10:36 PM EEST (8/31)
Length of Visible Light 13h 33m
Length of Day
12h 45m
Waxing Crescent, 29% of the Moon is Illuminated
Aug 31
Waxing Crescent
Sep 2
First Quarter
Sep 9
Full
Sep 16
Last Quarter
Sep 24
New

Hourly Weather History & Observations

Time (EEST) Temp. Dew Point Humidity Pressure Visibility Wind Dir Wind Speed Gust Speed Precip Events Conditions
12:00 AM 73.4 °F 51.8 °F 47% 30.12 in - Calm Calm - N/A   Clear
1:00 AM 71.6 °F 50.0 °F 46% 30.12 in - Calm Calm - N/A   Clear
2:00 AM 73.4 °F 50.0 °F 44% 30.06 in - Calm Calm - N/A   Clear
3:00 AM 69.8 °F 51.8 °F 53% 30.06 in - Calm Calm - N/A   Clear
4:00 AM 69.8 °F 51.8 °F 53% 30.06 in - Calm Calm - N/A   Clear
5:00 AM 71.6 °F 48.2 °F 43% 30.09 in - NNW 13.8 mph - N/A   Clear
6:00 AM 71.6 °F 46.4 °F 41% 30.09 in - WNW 12.7 mph - N/A   Clear
7:00 AM 71.6 °F 42.8 °F 35% 30.09 in - NW 6.9 mph - N/A   Clear
8:00 AM 73.4 °F 46.4 °F 38% 30.09 in - West 8.1 mph - N/A   Clear
9:00 AM 77.0 °F 48.2 °F 36% 30.09 in - NNW 9.2 mph - N/A   Clear
10:00 AM 78.8 °F 44.6 °F 30% 30.09 in - NNW 10.4 mph - N/A   Clear
11:00 AM 86.0 °F 26.6 °F 12% 30.06 in - NNW 9.2 mph - N/A   Clear
12:00 PM 86.0 °F 24.8 °F 11% 30.06 in - North 5.8 mph - N/A   Clear
1:00 PM 89.6 °F 24.8 °F 10% 30.06 in - WNW 9.2 mph - N/A   Clear
4:00 PM 95.0 °F 28.4 °F 9% 30.01 in - West 17.3 mph - N/A   Clear
5:00 PM 93.2 °F 28.4 °F 10% 30.01 in - West 20.7 mph - N/A   Clear
6:00 PM 89.6 °F 37.4 °F 16% 30.06 in - North 17.3 mph - N/A   Clear
7:00 PM 86.0 °F 37.4 °F 18% 30.06 in - NW 13.8 mph - N/A   Clear
8:00 PM 82.4 °F 35.6 °F 19% 30.06 in - NNW 13.8 mph - N/A   Clear
9:00 PM 78.8 °F 48.2 °F 34% 30.06 in - North 11.5 mph - N/A   Clear
10:00 PM 77.0 °F 50.0 °F 39% 30.06 in - North 5.8 mph - N/A   Clear
11:00 PM 75.2 °F 48.2 °F 38% 30.06 in - NNW 8.1 mph - N/A   Clear